Year,Month,Day,Hour,Minute,Value (Times are PST for temperature in C)
2015,04,29,00,00,8.60
2015,04,29,00,01,8.60
2015,04,29,00,02,8.50
2015,04,29,00,03,8.40
2015,04,29,00,04,8.30
2015,04,29,00,05,8.20
2015,04,29,00,06,8.20
2015,04,29,00,07,8.20
2015,04,29,00,08,8.20
2015,04,29,00,09,8.20
2015,04,29,00,10,8.30
2015,04,29,00,11,8.30
2015,04,29,00,12,8.30
2015,04,29,00,13,8.30
2015,04,29,00,14,8.30
2015,04,29,00,15,8.20
2015,04,29,00,16,8.10
2015,04,29,00,17,8.00
2015,04,29,00,18,8.00
2015,04,29,00,19,7.90
2015,04,29,00,20,7.90
2015,04,29,00,21,7.90
2015,04,29,00,22,7.90
2015,04,29,00,23,7.90
2015,04,29,00,24,7.90
2015,04,29,00,25,8.00
2015,04,29,00,26,8.00
2015,04,29,00,27,8.00
2015,04,29,00,28,8.00
2015,04,29,00,29,7.90
2015,04,29,00,30,7.90
2015,04,29,00,31,7.90
2015,04,29,00,32,7.90
2015,04,29,00,33,7.80
2015,04,29,00,34,7.80
2015,04,29,00,35,7.80
2015,04,29,00,36,7.80
2015,04,29,00,37,7.80
2015,04,29,00,38,7.80
2015,04,29,00,39,7.80
2015,04,29,00,40,7.70
2015,04,29,00,41,7.70
2015,04,29,00,42,7.70
2015,04,29,00,43,7.70
2015,04,29,00,44,7.70
2015,04,29,00,45,7.70
2015,04,29,00,46,7.70
2015,04,29,00,47,7.70
2015,04,29,00,48,7.60
2015,04,29,00,49,7.60
2015,04,29,00,50,7.60
2015,04,29,00,51,7.70
2015,04,29,00,52,7.90
2015,04,29,00,53,8.10
2015,04,29,00,54,8.20
2015,04,29,00,55,8.30
2015,04,29,00,56,8.40
2015,04,29,00,57,8.40
2015,04,29,00,58,8.40
2015,04,29,00,59,8.50
2015,04,29,01,00,8.50
2015,04,29,01,01,8.50
2015,04,29,01,02,8.50
2015,04,29,01,03,8.60
2015,04,29,01,04,8.60
2015,04,29,01,05,8.50
2015,04,29,01,06,8.50
2015,04,29,01,07,8.40
2015,04,29,01,08,8.30
2015,04,29,01,09,8.30
2015,04,29,01,10,8.30
2015,04,29,01,11,8.30
2015,04,29,01,12,8.20
2015,04,29,01,13,8.20
2015,04,29,01,14,8.20
2015,04,29,01,15,8.30
2015,04,29,01,16,8.40
2015,04,29,01,17,8.50
2015,04,29,01,18,8.60
2015,04,29,01,19,8.70
2015,04,29,01,20,8.80
2015,04,29,01,21,8.80
2015,04,29,01,22,8.90
2015,04,29,01,23,8.90
2015,04,29,01,24,8.90
2015,04,29,01,25,8.90
2015,04,29,01,26,8.90
2015,04,29,01,27,8.90
2015,04,29,01,28,8.90
2015,04,29,01,29,8.80
2015,04,29,01,30,8.70
2015,04,29,01,31,8.60
2015,04,29,01,32,8.60
2015,04,29,01,33,8.50
2015,04,29,01,34,8.40
2015,04,29,01,35,8.40
2015,04,29,01,36,8.40
2015,04,29,01,37,8.40
2015,04,29,01,38,8.30
2015,04,29,01,39,8.30
2015,04,29,01,40,8.30
2015,04,29,01,41,8.30
2015,04,29,01,42,8.30
2015,04,29,01,43,8.20
2015,04,29,01,44,8.10
2015,04,29,01,45,8.00
2015,04,29,01,46,7.90
2015,04,29,01,47,7.80
2015,04,29,01,48,7.60
2015,04,29,01,49,7.50
2015,04,29,01,50,7.50
2015,04,29,01,51,7.40
2015,04,29,01,52,7.40
2015,04,29,01,53,7.50
2015,04,29,01,54,7.50
2015,04,29,01,55,7.60
2015,04,29,01,56,7.70
2015,04,29,01,57,7.80
2015,04,29,01,58,7.80
2015,04,29,01,59,7.80
2015,04,29,02,00,7.80
2015,04,29,02,01,7.90
2015,04,29,02,02,7.90
2015,04,29,02,03,8.00
2015,04,29,02,04,8.00
2015,04,29,02,05,8.00
2015,04,29,02,06,8.00
2015,04,29,02,07,7.90
2015,04,29,02,08,7.80
2015,04,29,02,09,7.70
2015,04,29,02,10,7.70
2015,04,29,02,11,7.60
2015,04,29,02,12,7.50
2015,04,29,02,13,7.30
2015,04,29,02,14,7.20
2015,04,29,02,15,7.10
2015,04,29,02,16,7.10
2015,04,29,02,17,7.00
2015,04,29,02,18,7.00
2015,04,29,02,19,7.10
2015,04,29,02,20,7.20
2015,04,29,02,21,7.30
2015,04,29,02,22,7.40
2015,04,29,02,23,7.40
2015,04,29,02,24,7.20
2015,04,29,02,25,7.10
2015,04,29,02,26,7.00
2015,04,29,02,27,6.90
2015,04,29,02,28,6.90
2015,04,29,02,29,6.80
2015,04,29,02,30,6.80
2015,04,29,02,31,6.70
2015,04,29,02,32,6.70
2015,04,29,02,33,6.70
2015,04,29,02,34,6.60
2015,04,29,02,35,6.60
2015,04,29,02,36,6.60
2015,04,29,02,37,6.50
2015,04,29,02,38,6.40
2015,04,29,02,39,6.40
2015,04,29,02,40,6.30
2015,04,29,02,41,6.20
2015,04,29,02,42,6.20
2015,04,29,02,43,6.10
2015,04,29,02,44,6.00
2015,04,29,02,45,5.90
2015,04,29,02,46,5.90
2015,04,29,02,47,5.90
2015,04,29,02,48,5.90
2015,04,29,02,49,5.90
2015,04,29,02,50,5.90
2015,04,29,02,51,6.00
2015,04,29,02,52,6.00
2015,04,29,02,53,6.00
2015,04,29,02,54,6.00
2015,04,29,02,55,6.00
2015,04,29,02,56,6.20
2015,04,29,02,57,6.20
2015,04,29,02,58,6.20
2015,04,29,02,59,6.10
2015,04,29,03,00,6.10
2015,04,29,03,01,6.00
2015,04,29,03,02,6.00
2015,04,29,03,03,6.00
2015,04,29,03,04,6.10
2015,04,29,03,05,6.10
2015,04,29,03,06,6.10
2015,04,29,03,07,6.20
2015,04,29,03,08,6.20
2015,04,29,03,09,6.30
2015,04,29,03,10,6.40
2015,04,29,03,11,6.30
2015,04,29,03,12,6.20
2015,04,29,03,13,6.10
2015,04,29,03,14,6.00
2015,04,29,03,15,6.00
2015,04,29,03,16,5.90
2015,04,29,03,17,5.90
2015,04,29,03,18,5.80
2015,04,29,03,19,5.80
2015,04,29,03,20,5.80
2015,04,29,03,21,5.80
2015,04,29,03,22,5.80
2015,04,29,03,23,5.80
2015,04,29,03,24,5.80
2015,04,29,03,25,5.80
2015,04,29,03,26,5.80
2015,04,29,03,27,5.80
2015,04,29,03,28,5.80
2015,04,29,03,29,5.80
2015,04,29,03,30,6.00
2015,04,29,03,31,6.20
2015,04,29,03,32,6.40
2015,04,29,03,33,6.70
2015,04,29,03,34,6.90
2015,04,29,03,35,7.00
2015,04,29,03,36,7.10
2015,04,29,03,37,7.00
2015,04,29,03,38,6.90
2015,04,29,03,39,6.80
2015,04,29,03,40,6.70
2015,04,29,03,41,6.60
2015,04,29,03,42,6.50
2015,04,29,03,43,6.50
2015,04,29,03,44,6.40
2015,04,29,03,45,6.40
2015,04,29,03,46,6.50
2015,04,29,03,47,6.60
2015,04,29,03,48,6.70
2015,04,29,03,49,6.70
2015,04,29,03,50,6.70
2015,04,29,03,51,6.60
2015,04,29,03,52,6.60
2015,04,29,03,53,6.50
2015,04,29,03,54,6.40
2015,04,29,03,55,6.40
2015,04,29,03,56,6.30
2015,04,29,03,57,6.30
2015,04,29,03,58,6.20
2015,04,29,03,59,6.20
2015,04,29,04,00,6.10
2015,04,29,04,01,6.10
2015,04,29,04,02,6.10
2015,04,29,04,03,6.20
2015,04,29,04,04,6.20
2015,04,29,04,05,6.20
2015,04,29,04,06,6.20
2015,04,29,04,07,6.30
2015,04,29,04,08,6.50
2015,04,29,04,09,6.60
2015,04,29,04,10,6.60
2015,04,29,04,11,6.70
2015,04,29,04,12,6.70
2015,04,29,04,13,6.70
2015,04,29,04,14,6.70
2015,04,29,04,15,6.70
2015,04,29,04,16,6.70
2015,04,29,04,17,6.70
2015,04,29,04,18,6.70
2015,04,29,04,19,6.70
2015,04,29,04,20,6.70
2015,04,29,04,21,6.70
2015,04,29,04,22,6.70
2015,04,29,04,23,6.80
2015,04,29,04,24,6.80
2015,04,29,04,25,6.70
2015,04,29,04,26,6.70
2015,04,29,04,27,6.80
2015,04,29,04,28,6.80
2015,04,29,04,29,6.80
2015,04,29,04,30,6.80
2015,04,29,04,31,6.70
2015,04,29,04,32,6.70
2015,04,29,04,33,6.70
2015,04,29,04,34,6.70
2015,04,29,04,35,6.70
2015,04,29,04,36,6.70
2015,04,29,04,37,6.80
2015,04,29,04,38,6.80
2015,04,29,04,39,6.80
2015,04,29,04,40,6.80
2015,04,29,04,41,6.90
2015,04,29,04,42,6.90
2015,04,29,04,43,6.90
2015,04,29,04,44,6.90
2015,04,29,04,45,6.90
2015,04,29,04,46,6.90
2015,04,29,04,47,7.00
2015,04,29,04,48,7.10
2015,04,29,04,49,7.20
2015,04,29,04,50,7.20
2015,04,29,04,51,7.20
2015,04,29,04,52,7.20
2015,04,29,04,53,7.20
2015,04,29,04,54,7.20
2015,04,29,04,55,7.20
2015,04,29,04,56,7.20
2015,04,29,04,57,7.20
2015,04,29,04,58,7.30
2015,04,29,04,59,7.30
2015,04,29,05,00,7.40
2015,04,29,05,01,7.40
2015,04,29,05,02,7.50
2015,04,29,05,03,7.50
2015,04,29,05,04,7.50
2015,04,29,05,05,7.60
2015,04,29,05,06,7.70
2015,04,29,05,07,7.90
2015,04,29,05,08,8.10
2015,04,29,05,09,8.30
2015,04,29,05,10,8.40
2015,04,29,05,11,8.50
2015,04,29,05,12,8.60
2015,04,29,05,13,8.60
2015,04,29,05,14,8.70
2015,04,29,05,15,8.70
2015,04,29,05,16,8.70
2015,04,29,05,17,8.60
2015,04,29,05,18,8.50
2015,04,29,05,19,8.40
2015,04,29,05,20,8.20
2015,04,29,05,21,8.00
2015,04,29,05,22,7.80
2015,04,29,05,23,7.60
2015,04,29,05,24,7.50
2015,04,29,05,25,7.40
2015,04,29,05,26,7.30
2015,04,29,05,27,7.30
2015,04,29,05,28,7.20
2015,04,29,05,29,7.20
2015,04,29,05,30,7.20
2015,04,29,05,31,7.20
2015,04,29,05,32,7.20
2015,04,29,05,33,7.20
2015,04,29,05,34,7.20
2015,04,29,05,35,7.20
2015,04,29,05,36,7.30
2015,04,29,05,37,7.30
2015,04,29,05,38,7.30
2015,04,29,05,39,7.40
2015,04,29,05,40,7.40
2015,04,29,05,41,7.40
2015,04,29,05,42,7.40
2015,04,29,05,43,7.40
2015,04,29,05,44,7.40
2015,04,29,05,45,7.40
2015,04,29,05,46,7.40
2015,04,29,05,47,7.40
2015,04,29,05,48,7.40
2015,04,29,05,49,7.30
2015,04,29,05,50,7.30
2015,04,29,05,51,7.40
2015,04,29,05,52,7.40
2015,04,29,05,53,7.40
2015,04,29,05,54,7.40
2015,04,29,05,55,7.40
2015,04,29,05,56,7.40
2015,04,29,05,57,7.40
2015,04,29,05,58,7.40
2015,04,29,05,59,7.50
2015,04,29,06,00,7.50
2015,04,29,06,01,7.50
2015,04,29,06,02,7.60
2015,04,29,06,03,7.60
2015,04,29,06,04,7.60
2015,04,29,06,05,7.60
2015,04,29,06,06,7.60
2015,04,29,06,07,7.60
2015,04,29,06,08,7.60
2015,04,29,06,09,7.60
2015,04,29,06,10,7.60
2015,04,29,06,11,7.60
2015,04,29,06,12,7.60
2015,04,29,06,13,7.60
2015,04,29,06,14,7.60
2015,04,29,06,15,7.60
2015,04,29,06,16,7.50
2015,04,29,06,17,7.50
2015,04,29,06,18,7.50
2015,04,29,06,19,7.40
2015,04,29,06,20,7.40
2015,04,29,06,21,7.40
2015,04,29,06,22,7.30
2015,04,29,06,23,7.40
2015,04,29,06,24,7.40
2015,04,29,06,25,7.40
2015,04,29,06,26,7.40
2015,04,29,06,27,7.40
2015,04,29,06,28,7.30
2015,04,29,06,29,7.20
2015,04,29,06,30,7.20
2015,04,29,06,31,7.10
2015,04,29,06,32,7.10
2015,04,29,06,33,7.00
2015,04,29,06,34,7.00
2015,04,29,06,35,7.00
2015,04,29,06,36,7.00
2015,04,29,06,37,7.00
2015,04,29,06,38,7.00
2015,04,29,06,39,7.10
2015,04,29,06,40,7.10
2015,04,29,06,41,7.10
2015,04,29,06,42,7.10
2015,04,29,06,43,7.20
2015,04,29,06,44,7.20
2015,04,29,06,45,7.20
2015,04,29,06,46,7.20
2015,04,29,06,47,7.30
2015,04,29,06,48,7.30
2015,04,29,06,49,7.30
2015,04,29,06,50,7.30
2015,04,29,06,51,7.30
2015,04,29,06,52,7.30
2015,04,29,06,53,7.30
2015,04,29,06,54,7.30
2015,04,29,06,55,7.30
2015,04,29,06,56,7.30
2015,04,29,06,57,7.30
2015,04,29,06,58,7.20
2015,04,29,06,59,7.10
2015,04,29,07,00,7.00
2015,04,29,07,01,6.90
2015,04,29,07,02,6.80
2015,04,29,07,03,6.80
2015,04,29,07,04,6.80
2015,04,29,07,05,6.80
2015,04,29,07,06,6.70
2015,04,29,07,07,6.70
2015,04,29,07,08,6.80
2015,04,29,07,09,6.80
2015,04,29,07,10,6.80
2015,04,29,07,11,6.80
2015,04,29,07,12,6.80
2015,04,29,07,13,6.70
2015,04,29,07,14,6.70
2015,04,29,07,15,6.70
2015,04,29,07,16,6.70
2015,04,29,07,17,6.70
2015,04,29,07,18,6.70
2015,04,29,07,19,6.70
2015,04,29,07,20,6.70
2015,04,29,07,21,6.70
2015,04,29,07,22,6.70
2015,04,29,07,23,6.70
2015,04,29,07,24,6.80
2015,04,29,07,25,6.80
2015,04,29,07,26,6.80
2015,04,29,07,27,6.80
2015,04,29,07,28,6.80
2015,04,29,07,29,6.90
2015,04,29,07,30,6.90
2015,04,29,07,31,6.90
2015,04,29,07,32,6.90
2015,04,29,07,33,6.90
2015,04,29,07,34,6.90
2015,04,29,07,35,7.00
2015,04,29,07,36,7.00
2015,04,29,07,37,7.00
2015,04,29,07,38,7.00
2015,04,29,07,39,6.90
2015,04,29,07,40,6.90
2015,04,29,07,41,6.90
2015,04,29,07,42,6.90
2015,04,29,07,43,6.90
2015,04,29,07,44,6.90
2015,04,29,07,45,6.90
2015,04,29,07,46,6.90
2015,04,29,07,47,6.90
2015,04,29,07,48,7.00
2015,04,29,07,49,6.90
2015,04,29,07,50,6.90
2015,04,29,07,51,6.90
2015,04,29,07,52,6.90
2015,04,29,07,53,6.90
2015,04,29,07,54,6.90
2015,04,29,07,55,6.90
2015,04,29,07,56,6.90
2015,04,29,07,57,6.90
2015,04,29,07,58,7.00
2015,04,29,07,59,7.00
2015,04,29,08,00,7.10
2015,04,29,08,01,7.20
2015,04,29,08,02,7.30
2015,04,29,08,03,7.30
2015,04,29,08,04,7.40
2015,04,29,08,05,7.50
2015,04,29,08,06,7.60
2015,04,29,08,07,7.70
2015,04,29,08,08,7.90
2015,04,29,08,09,8.10
2015,04,29,08,10,8.20
2015,04,29,08,11,8.40
2015,04,29,08,12,8.50
2015,04,29,08,13,8.70
2015,04,29,08,14,8.80
2015,04,29,08,15,9.00
2015,04,29,08,16,9.10
2015,04,29,08,17,9.20
2015,04,29,08,18,9.30
2015,04,29,08,19,9.40
2015,04,29,08,20,9.40
2015,04,29,08,21,9.30
2015,04,29,08,22,9.30
2015,04,29,08,23,9.30
2015,04,29,08,24,9.30
2015,04,29,08,25,9.30
2015,04,29,08,26,9.30
2015,04,29,08,27,9.40
2015,04,29,08,28,9.40
2015,04,29,08,29,9.40
2015,04,29,08,30,9.40
2015,04,29,08,31,9.50
2015,04,29,08,32,9.50
2015,04,29,08,33,9.60
2015,04,29,08,34,9.60
2015,04,29,08,35,9.60
2015,04,29,08,36,9.60
2015,04,29,08,37,9.60
2015,04,29,08,38,9.60
2015,04,29,08,39,9.60
2015,04,29,08,40,9.60
2015,04,29,08,41,9.60
2015,04,29,08,42,9.60
2015,04,29,08,43,9.50
2015,04,29,08,44,9.50
2015,04,29,08,45,9.50
2015,04,29,08,46,9.60
2015,04,29,08,47,9.60
2015,04,29,08,48,9.60
2015,04,29,08,49,9.70
2015,04,29,08,50,9.70
2015,04,29,08,51,9.70
2015,04,29,08,52,9.80
2015,04,29,08,53,9.80
2015,04,29,08,54,9.80
2015,04,29,08,55,9.90
2015,04,29,08,56,9.90
2015,04,29,08,57,9.90
2015,04,29,08,58,9.90
2015,04,29,08,59,9.80
2015,04,29,09,00,9.90
2015,04,29,09,01,9.90
2015,04,29,09,02,9.90
2015,04,29,09,03,10.00
2015,04,29,09,04,10.00
2015,04,29,09,05,10.00
2015,04,29,09,06,10.00
2015,04,29,09,07,10.10
2015,04,29,09,08,10.10
2015,04,29,09,09,10.20
2015,04,29,09,10,10.20
2015,04,29,09,11,10.20
2015,04,29,09,12,10.20
2015,04,29,09,13,10.20
2015,04,29,09,14,10.20
2015,04,29,09,15,10.20
2015,04,29,09,16,10.20
2015,04,29,09,17,10.20
2015,04,29,09,18,10.30
2015,04,29,09,19,10.30
2015,04,29,09,20,10.30
2015,04,29,09,21,10.40
2015,04,29,09,22,10.40
2015,04,29,09,23,10.40
2015,04,29,09,24,10.40
2015,04,29,09,25,10.40
2015,04,29,09,26,10.50
2015,04,29,09,27,10.60
2015,04,29,09,28,10.70
2015,04,29,09,29,10.80
2015,04,29,09,30,11.00
2015,04,29,09,31,11.10
2015,04,29,09,32,11.20
2015,04,29,09,33,11.30
2015,04,29,09,34,11.30
2015,04,29,09,35,11.40
2015,04,29,09,36,11.40
2015,04,29,09,37,11.50
2015,04,29,09,38,11.50
2015,04,29,09,39,11.60
2015,04,29,09,40,11.70
2015,04,29,09,41,11.70
2015,04,29,09,42,11.70
2015,04,29,09,43,11.70
2015,04,29,09,44,11.60
2015,04,29,09,45,11.60
2015,04,29,09,46,11.60
2015,04,29,09,47,11.60
2015,04,29,09,48,11.60
2015,04,29,09,49,11.60
2015,04,29,09,50,11.60
2015,04,29,09,51,11.70
2015,04,29,09,52,11.70
2015,04,29,09,53,11.80
2015,04,29,09,54,11.80
2015,04,29,09,55,11.80
2015,04,29,09,56,11.80
2015,04,29,09,57,11.80
2015,04,29,09,58,11.80
2015,04,29,09,59,11.80
2015,04,29,10,00,11.80
2015,04,29,10,01,11.80
2015,04,29,10,02,11.80
2015,04,29,10,03,11.80
2015,04,29,10,04,11.90
2015,04,29,10,05,11.90
2015,04,29,10,06,11.80
2015,04,29,10,07,11.80
2015,04,29,10,08,11.80
2015,04,29,10,09,11.80
2015,04,29,10,10,11.80
2015,04,29,10,11,11.80
2015,04,29,10,12,11.80
2015,04,29,10,13,11.80
2015,04,29,10,14,11.70
2015,04,29,10,15,11.70
2015,04,29,10,16,11.70
2015,04,29,10,17,11.70
2015,04,29,10,18,11.70
2015,04,29,10,19,11.70
2015,04,29,10,20,11.60
2015,04,29,10,21,11.60
2015,04,29,10,22,11.60
2015,04,29,10,23,11.50
2015,04,29,10,24,11.40
2015,04,29,10,25,11.40
2015,04,29,10,26,11.30
2015,04,29,10,27,11.30
2015,04,29,10,28,11.30
2015,04,29,10,29,11.30
2015,04,29,10,30,11.20
2015,04,29,10,31,11.20
2015,04,29,10,32,11.20
2015,04,29,10,33,11.10
2015,04,29,10,34,11.10
2015,04,29,10,35,11.10
2015,04,29,10,36,11.10
2015,04,29,10,37,11.10
2015,04,29,10,38,11.10
2015,04,29,10,39,11.10
2015,04,29,10,40,11.20
2015,04,29,10,41,11.30
2015,04,29,10,42,11.30
2015,04,29,10,43,11.40
2015,04,29,10,44,11.50
2015,04,29,10,45,11.50
2015,04,29,10,46,11.60
2015,04,29,10,47,11.60
2015,04,29,10,48,11.70
2015,04,29,10,49,11.70
2015,04,29,10,50,11.80
2015,04,29,10,51,11.80
2015,04,29,10,52,11.90
2015,04,29,10,53,11.90
2015,04,29,10,54,11.90
2015,04,29,10,55,11.90
2015,04,29,10,56,11.80
2015,04,29,10,57,11.70
2015,04,29,10,58,11.60
2015,04,29,10,59,11.60
2015,04,29,11,00,11.60
2015,04,29,11,01,11.60
2015,04,29,11,02,11.60
2015,04,29,11,03,11.60
2015,04,29,11,04,11.70
2015,04,29,11,05,11.80
2015,04,29,11,06,11.90
2015,04,29,11,07,12.00
2015,04,29,11,08,12.10
2015,04,29,11,09,12.10
2015,04,29,11,10,12.10
2015,04,29,11,11,12.10
2015,04,29,11,12,12.20
2015,04,29,11,13,12.30
2015,04,29,11,14,12.40
2015,04,29,11,15,12.60
2015,04,29,11,16,12.60
2015,04,29,11,17,12.60
2015,04,29,11,18,12.70
2015,04,29,11,19,12.80
2015,04,29,11,20,12.90
2015,04,29,11,21,12.80
2015,04,29,11,22,12.70
2015,04,29,11,23,12.70
2015,04,29,11,24,12.70
2015,04,29,11,25,12.70
2015,04,29,11,26,12.70
2015,04,29,11,27,12.70
2015,04,29,11,28,12.90
2015,04,29,11,29,13.00
2015,04,29,11,30,13.20
2015,04,29,11,31,13.30
2015,04,29,11,32,13.40
2015,04,29,11,33,13.40
2015,04,29,11,34,13.40
2015,04,29,11,35,13.40
2015,04,29,11,36,13.50
2015,04,29,11,37,13.40
2015,04,29,11,38,13.40
2015,04,29,11,39,13.40
2015,04,29,11,40,13.40
2015,04,29,11,41,13.30
2015,04,29,11,42,13.10
2015,04,29,11,43,12.80
2015,04,29,11,44,12.70
2015,04,29,11,45,12.60
2015,04,29,11,46,12.50
2015,04,29,11,47,12.50
2015,04,29,11,48,12.40
2015,04,29,11,49,12.50
2015,04,29,11,50,12.50
2015,04,29,11,51,12.50
2015,04,29,11,52,12.50
2015,04,29,11,53,12.50
2015,04,29,11,54,12.50
2015,04,29,11,55,12.40
2015,04,29,11,56,12.40
2015,04,29,11,57,12.30
2015,04,29,11,58,12.40
2015,04,29,11,59,12.40
2015,04,29,12,00,12.40
2015,04,29,12,01,12.40
2015,04,29,12,02,12.50
2015,04,29,12,03,12.50
2015,04,29,12,04,12.60
2015,04,29,12,05,12.60
2015,04,29,12,06,12.60
2015,04,29,12,07,12.60
2015,04,29,12,08,12.60
2015,04,29,12,09,12.60
2015,04,29,12,10,12.60
2015,04,29,12,11,12.60
2015,04,29,12,12,12.50
2015,04,29,12,13,12.60
2015,04,29,12,14,12.60
2015,04,29,12,15,12.70
2015,04,29,12,16,12.80
2015,04,29,12,17,12.80
2015,04,29,12,18,13.00
2015,04,29,12,19,13.10
2015,04,29,12,20,13.20
2015,04,29,12,21,13.30
2015,04,29,12,22,13.30
2015,04,29,12,23,13.40
2015,04,29,12,24,13.50
2015,04,29,12,25,13.50
2015,04,29,12,26,13.50
2015,04,29,12,27,13.40
2015,04,29,12,28,13.40
2015,04,29,12,29,13.30
2015,04,29,12,30,13.20
2015,04,29,12,31,13.20
2015,04,29,12,32,13.20
2015,04,29,12,33,13.20
2015,04,29,12,34,13.20
2015,04,29,12,35,13.20
2015,04,29,12,36,13.20
2015,04,29,12,37,13.20
2015,04,29,12,38,13.20
2015,04,29,12,39,13.20
2015,04,29,12,40,13.20
2015,04,29,12,41,13.10
2015,04,29,12,42,13.10
2015,04,29,12,43,13.10
2015,04,29,12,44,13.20
2015,04,29,12,45,13.30
2015,04,29,12,46,13.40
2015,04,29,12,47,13.50
2015,04,29,12,48,13.50
2015,04,29,12,49,13.40
2015,04,29,12,50,13.30
2015,04,29,12,51,13.10
2015,04,29,12,52,12.90
2015,04,29,12,53,12.80
2015,04,29,12,54,12.80
2015,04,29,12,55,12.80
2015,04,29,12,56,12.80
2015,04,29,12,57,12.80
2015,04,29,12,58,12.80
2015,04,29,12,59,12.70
2015,04,29,13,00,12.70
2015,04,29,13,01,12.70
2015,04,29,13,02,12.70
2015,04,29,13,03,12.70
2015,04,29,13,04,12.70
2015,04,29,13,05,12.60
2015,04,29,13,06,12.60
2015,04,29,13,07,12.60
2015,04,29,13,08,12.60
2015,04,29,13,09,12.50
2015,04,29,13,10,12.40
2015,04,29,13,11,12.50
2015,04,29,13,12,12.60
2015,04,29,13,13,12.70
2015,04,29,13,14,12.70
2015,04,29,13,15,12.70
2015,04,29,13,16,12.70
2015,04,29,13,17,12.80
2015,04,29,13,18,12.80
2015,04,29,13,19,12.80
2015,04,29,13,20,12.80
2015,04,29,13,21,12.80
2015,04,29,13,22,12.90
2015,04,29,13,23,12.90
2015,04,29,13,24,12.90
2015,04,29,13,25,12.90
2015,04,29,13,26,12.90
2015,04,29,13,27,12.80
2015,04,29,13,28,12.70
2015,04,29,13,29,12.70
2015,04,29,13,30,12.70
2015,04,29,13,31,12.70
2015,04,29,13,32,12.60
2015,04,29,13,33,12.60
2015,04,29,13,34,12.50
2015,04,29,13,35,12.50
2015,04,29,13,36,12.40
2015,04,29,13,37,12.40
2015,04,29,13,38,12.50
2015,04,29,13,39,12.50
2015,04,29,13,40,12.60
2015,04,29,13,41,12.60
2015,04,29,13,42,12.70
2015,04,29,13,43,12.70
2015,04,29,13,44,12.70
2015,04,29,13,45,12.80
2015,04,29,13,46,12.80
2015,04,29,13,47,12.80
2015,04,29,13,48,12.90
2015,04,29,13,49,12.90
2015,04,29,13,50,12.80
2015,04,29,13,51,12.80
2015,04,29,13,52,12.80
2015,04,29,13,53,12.70
2015,04,29,13,54,12.70
2015,04,29,13,55,12.70
2015,04,29,13,56,12.70
2015,04,29,13,57,12.80
2015,04,29,13,58,12.80
2015,04,29,13,59,12.90
2015,04,29,14,00,12.90
2015,04,29,14,01,12.90
2015,04,29,14,02,13.00
2015,04,29,14,03,13.10
2015,04,29,14,04,13.10
2015,04,29,14,05,13.20
2015,04,29,14,06,13.30
2015,04,29,14,07,13.30
2015,04,29,14,08,13.30
2015,04,29,14,09,13.30
2015,04,29,14,10,13.40
2015,04,29,14,11,13.50
2015,04,29,14,12,13.50
2015,04,29,14,13,13.50
2015,04,29,14,14,13.40
2015,04,29,14,15,13.30
2015,04,29,14,16,13.30
2015,04,29,14,17,13.30
2015,04,29,14,18,13.40
2015,04,29,14,19,13.40
2015,04,29,14,20,13.30
2015,04,29,14,21,13.30
2015,04,29,14,22,13.20
2015,04,29,14,23,13.10
2015,04,29,14,24,13.10
2015,04,29,14,25,13.10
2015,04,29,14,26,13.10
2015,04,29,14,27,13.10
2015,04,29,14,28,13.10
2015,04,29,14,29,13.10
2015,04,29,14,30,13.10
2015,04,29,14,31,13.10
2015,04,29,14,32,13.00
2015,04,29,14,33,13.00
2015,04,29,14,34,13.00
2015,04,29,14,35,13.10
2015,04,29,14,36,13.10
2015,04,29,14,37,13.10
2015,04,29,14,38,13.20
2015,04,29,14,39,13.20
2015,04,29,14,40,13.30
2015,04,29,14,41,13.30
2015,04,29,14,42,13.40
2015,04,29,14,43,13.40
2015,04,29,14,44,13.40
2015,04,29,14,45,13.50
2015,04,29,14,46,13.50
2015,04,29,14,47,13.50
2015,04,29,14,48,13.40
2015,04,29,14,49,13.30
2015,04,29,14,50,13.20
2015,04,29,14,51,13.20
2015,04,29,14,52,13.10
2015,04,29,14,53,13.00
2015,04,29,14,54,13.00
2015,04,29,14,55,13.00
2015,04,29,14,56,13.00
2015,04,29,14,57,13.00
2015,04,29,14,58,13.10
2015,04,29,14,59,13.20
2015,04,29,15,00,13.20
2015,04,29,15,01,13.20
2015,04,29,15,02,13.20
2015,04,29,15,03,13.20
2015,04,29,15,04,13.10
2015,04,29,15,05,13.10
2015,04,29,15,06,13.10
2015,04,29,15,07,13.10
2015,04,29,15,08,13.20
2015,04,29,15,09,13.10
2015,04,29,15,10,13.10
2015,04,29,15,11,13.00
2015,04,29,15,12,13.00
2015,04,29,15,13,13.00
2015,04,29,15,14,13.00
2015,04,29,15,15,13.00
2015,04,29,15,16,13.00
2015,04,29,15,17,13.10
2015,04,29,15,18,13.10
2015,04,29,15,19,13.10
2015,04,29,15,20,13.20
2015,04,29,15,21,13.20
2015,04,29,15,22,13.20
2015,04,29,15,23,13.30
2015,04,29,15,24,13.30
2015,04,29,15,25,13.40
2015,04,29,15,26,13.50
2015,04,29,15,27,13.50
2015,04,29,15,28,13.60
2015,04,29,15,29,13.70
2015,04,29,15,30,13.80
2015,04,29,15,31,13.80
2015,04,29,15,32,13.80
2015,04,29,15,33,13.70
2015,04,29,15,34,13.50
2015,04,29,15,35,13.40
2015,04,29,15,36,13.20
2015,04,29,15,37,13.00
2015,04,29,15,38,12.90
2015,04,29,15,39,12.90
2015,04,29,15,40,12.90
2015,04,29,15,41,13.00
2015,04,29,15,42,13.00
2015,04,29,15,43,13.00
2015,04,29,15,44,12.90
2015,04,29,15,45,12.80
2015,04,29,15,46,12.70
2015,04,29,15,47,12.70
2015,04,29,15,48,12.80
2015,04,29,15,49,12.80
2015,04,29,15,50,12.90
2015,04,29,15,51,12.90
2015,04,29,15,52,13.00
2015,04,29,15,53,13.00
2015,04,29,15,54,13.10
2015,04,29,15,55,13.00
2015,04,29,15,56,12.90
2015,04,29,15,57,12.90
2015,04,29,15,58,12.90
2015,04,29,15,59,12.90
2015,04,29,16,00,12.90
2015,04,29,16,01,12.90
2015,04,29,16,02,13.00
2015,04,29,16,03,13.10
2015,04,29,16,04,13.20
2015,04,29,16,05,13.30
2015,04,29,16,06,13.20
2015,04,29,16,07,13.10
2015,04,29,16,08,13.10
2015,04,29,16,09,13.20
2015,04,29,16,10,13.20
2015,04,29,16,11,13.30
2015,04,29,16,12,13.30
2015,04,29,16,13,13.30
2015,04,29,16,14,13.20
2015,04,29,16,15,13.20
2015,04,29,16,16,13.20
2015,04,29,16,17,13.10
2015,04,29,16,18,13.10
2015,04,29,16,19,12.90
2015,04,29,16,20,12.80
2015,04,29,16,21,12.70
2015,04,29,16,22,12.70
2015,04,29,16,23,12.70
2015,04,29,16,24,12.80
2015,04,29,16,25,12.90
2015,04,29,16,26,13.00
2015,04,29,16,27,13.00
2015,04,29,16,28,13.00
2015,04,29,16,29,13.00
2015,04,29,16,30,13.00
2015,04,29,16,31,12.90
2015,04,29,16,32,12.90
2015,04,29,16,33,12.80
2015,04,29,16,34,12.80
2015,04,29,16,35,12.80
2015,04,29,16,36,12.80
2015,04,29,16,37,12.80
2015,04,29,16,38,12.90
2015,04,29,16,39,13.00
2015,04,29,16,40,13.10
2015,04,29,16,41,13.10
2015,04,29,16,42,13.20
2015,04,29,16,43,13.20
2015,04,29,16,44,13.30
2015,04,29,16,45,13.40
2015,04,29,16,46,13.40
2015,04,29,16,47,13.40
2015,04,29,16,48,13.30
2015,04,29,16,49,13.30
2015,04,29,16,50,13.20
2015,04,29,16,51,13.30
2015,04,29,16,52,13.30
2015,04,29,16,53,13.30
2015,04,29,16,54,13.20
2015,04,29,16,55,13.20
2015,04,29,16,56,13.20
2015,04,29,16,57,13.30
2015,04,29,16,58,13.30
2015,04,29,16,59,13.40
2015,04,29,17,00,13.40
2015,04,29,17,01,13.50
2015,04,29,17,02,13.50
2015,04,29,17,03,13.60
2015,04,29,17,04,13.60
2015,04,29,17,05,13.60
2015,04,29,17,06,13.50
2015,04,29,17,07,13.40
2015,04,29,17,08,13.40
2015,04,29,17,09,13.30
2015,04,29,17,10,13.40
2015,04,29,17,11,13.40
2015,04,29,17,12,13.40
2015,04,29,17,13,13.40
2015,04,29,17,14,13.40
2015,04,29,17,15,13.30
2015,04,29,17,16,13.30
2015,04,29,17,17,13.30
2015,04,29,17,18,13.20
2015,04,29,17,19,13.10
2015,04,29,17,20,13.10
2015,04,29,17,21,13.00
2015,04,29,17,22,13.00
2015,04,29,17,23,12.90
2015,04,29,17,24,12.90
2015,04,29,17,25,12.90
2015,04,29,17,26,12.90
2015,04,29,17,27,12.90
2015,04,29,17,28,12.90
2015,04,29,17,29,12.90
2015,04,29,17,30,12.90
2015,04,29,17,31,13.00
2015,04,29,17,32,13.00
2015,04,29,17,33,13.10
2015,04,29,17,34,13.10
2015,04,29,17,35,13.10
2015,04,29,17,36,13.10
2015,04,29,17,37,13.10
2015,04,29,17,38,13.10
2015,04,29,17,39,13.00
2015,04,29,17,40,12.90
2015,04,29,17,41,12.90
2015,04,29,17,42,12.90
2015,04,29,17,43,12.90